Location: Unspecified
(0.0000°N, 0.0000°E)
Time: 05:32:18
(UTC+00:00)

ISS - Pass Details

Date: 11 May 2021
Orbit: 417 x 422 km, 51.6° (Epoch: 18 May)

Event Time Altitude Azimuth Distance (km) Brightness Sun altitude
Rises 19:46:34 0° 227° (SW) 2,352 0.4 -26.1°
Reaches altitude 10° 19:48:44 10° 234° (SW) 1,487 -0.6 -26.6°
Enters shadow 19:49:27 15° 239° (WSW) 1,222 -1.0 -26.7°
